Temp
26 26 25 31 30 32 34 33 36 36 36 36 36 35 34 34 33 30 31 30 30 27 25 25 24 24 23 22 21 21 20 19 18 18 18 18 17 17 18 17 17 17 17 17 18 18 18 18 18
26 27 29 32 30 32 34 35 35 36 36 36 35 35 34 33 34 33 31 30 30 28 26 24 24 24 23 22 21 20 19 19 18 18 18 17 17 17 17 17 17 17 17 17 18 18 18 18 18
27 30 31 32 32 33 33 35 36 36 37 35 35 35 34 32 32 32 30 29 29 28 27 25 24 24 23 22 20 19 19 19 18 18 18 18 18 17 17 17 17 17 17 17 18 18 18 18 18
28 32 32 31 33 36 35 36 36 35 36 36 35 34 34 32 32 31 30 29 29 29 28 25 24 23 22 21 19 19 19 18 18 18 18 18 18 17 17 17 17 17 17 17 18 18 17 18 18
30 32 31 32 34 34 35 36 36 35 36 36 35 34 33 31 31 30 29 29 29 28 27 25 24 23 22 21 19 19 18 18 18 17 17 17 17 16 17 17 17 17 17 17 17 17 17 17 17
31 33 31 32 35 35 36 36 35 35 36 36 35 34 32 31 30 30 29 28 28 27 26 25 23 22 22 21 20 19 18 18 17 17 16 16 16 16 16 16 16 17 17 17 17 17 17 17 17
30 32 32 33 34 35 36 36 35 35 35 35 35 33 33 31 31 30 29 27 26 26 25 24 23 22 21 21 20 19 19 18 17 16 16 15 15 15 15 16 16 16 17 16 16 17 17 17 16
32 32 32 33 33 34 36 36 36 35 34 36 35 32 32 31 30 29 28 28 27 26 26 25 24 24 23 21 19 19 18 18 16 16 15 14 14 15 15 15 15 16 16 16 16 16 16 16 16
34 31 31 32 34 35 36 36 36 37 35 35 35 34 33 31 30 29 29 29 29 28 26 25 25 23 22 21 20 19 18 17 16 16 16 15 15 16 16 17 16 16 16 16 16 16 16 16 16
32 31 32 34 35 35 35 35 35 35 35 34 34 34 32 31 30 30 30 29 29 28 27 25 24 22 20 20 20 19 19 17 16 16 15 15 15 16 16 16 16 16 16 16 16 16 16 16 17
32 32 33 34 35 35 34 34 35 35 34 35 34 34 32 31 31 30 31 30 27 26 26 25 23 21 19 19 19 18 18 17 16 16 15 16 15 15 16 16 16 16 16 15 15 16 16 17 17
32 33 34 34 35 34 33 35 34 35 35 35 35 34 33 31 30 30 30 30 28 27 25 24 22 20 19 18 18 19 19 17 17 16 16 16 15 15 16 16 16 16 15 16 16 16 17 17 18
32 34 35 35 34 33 35 34 34 34 35 36 35 34 33 32 31 30 29 29 26 25 24 23 21 20 18 18 18 18 17 17 16 17 17 16 16 15 15 16 16 16 16 16 16 16 17 18 19
34 34 34 34 34 34 34 34 34 34 35 34 34 33 33 32 31 29 28 27 26 25 23 22 21 20 19 18 18 17 17 17 17 17 17 17 16 15 15 15 15 16 16 16 16 17 17 18 19
34 32 33 34 34 34 35 33 33 34 35 34 34 33 33 32 31 30 27 26 25 24 23 22 21 20 19 19 18 18 17 17 16 16 16 16 15 15 15 15 16 16 16 16 16 17 17 18 19
32 32 32 33 34 35 34 31 34 35 34 33 34 33 33 32 32 30 28 26 24 23 23 22 21 21 20 20 19 18 18 17 16 16 16 16 16 15 15 16 16 15 15 16 16 16 17 18 19
31 30 31 33 35 35 34 32 34 35 34 34 34 33 33 33 30 29 27 25 24 23 22 22 21 20 20 20 19 19 18 17 17 16 16 16 15 15 15 16 16 15 15 16 16 17 17 18 19
29 31 32 32 34 35 34 33 34 34 34 34 34 34 33 32 29 28 27 25 24 23 22 21 21 20 20 20 20 19 18 17 17 16 16 15 15 15 15 16 16 16 16 16 17 17 18 19 19
31 32 32 34 36 33 33 33 34 34 34 34 34 33 33 31 30 27 26 25 23 23 22 21 21 21 20 20 21 20 19 18 17 16 15 15 15 15 16 16 16 16 16 17 17 17 18 18 19
31 31 32 34 35 34 34 33 34 34 34 33 33 33 33 31 29 27 25 24 23 22 22 22 21 21 20 21 21 19 19 18 18 16 16 16 16 15 15 16 16 17 17 17 17 18 18 18 18
31 31 32 32 34 34 33 32 33 34 35 35 35 34 33 30 28 26 25 24 23 23 22 22 22 21 20 20 21 20 19 18 18 17 16 16 16 16 16 16 16 17 17 17 18 17 18 17 18
31 33 33 33 32 30 33 30 32 33 34 34 34 33 32 30 29 27 25 24 23 23 23 22 22 21 21 20 21 20 18 18 17 17 16 16 16 16 16 16 17 17 17 18 18 18 17 17 17
32 34 34 33 32 31 31 30 31 33 33 34 34 34 32 30 29 27 26 24 24 24 23 22 22 21 21 20 20 20 19 18 17 17 17 16 16 16 16 16 17 18 18 18 18 18 18 18 17
34 34 33 32 32 29 30 30 30 32 33 33 34 34 32 31 29 27 26 25 24 24 23 22 22 22 21 21 21 20 19 18 17 17 17 16 15 16 16 16 17 17 17 18 18 19 19 18 18
34 32 29 28 28 28 31 30 31 34 34 34 34 33 32 31 29 27 26 25 24 24 23 22 22 22 21 22 21 20 19 17 17 17 17 16 16 15 15 16 16 16 17 17 17 18 19 19 17
33 31 30 27 27 29 32 31 32 34 34 34 34 33 31 30 28 27 26 25 25 24 23 23 22 22 22 22 21 21 19 18 17 17 16 16 16 15 15 15 16 16 17 17 17 18 18 16 16
32 31 32 30 31 31 32 32 33 34 33 33 33 32 30 29 27 27 26 25 25 24 23 23 23 22 22 21 21 21 20 19 18 17 17 16 16 15 16 16 16 16 16 17 18 18 17 16 16
33 34 30 30 27 27 30 31 32 32 33 33 32 31 29 28 28 27 26 25 25 24 23 23 23 23 22 22 21 21 20 19 19 18 17 17 16 16 16 16 16 16 17 17 17 17 17 16 16
32 32 32 31 31 28 28 30 34 33 33 31 32 31 29 28 28 27 27 26 25 24 23 23 23 23 22 22 22 22 21 21 20 19 18 17 17 17 17 17 16 16 16 17 17 16 17 16 15
33 32 32 30 29 31 31 31 34 33 33 33 31 31 29 29 28 28 27 26 25 24 24 23 23 23 23 22 22 21 21 21 19 19 18 18 17 17 17 17 17 17 16 17 17 16 16 15 15
Height
776 776 777 773 789 768 762 762 736 736 737 729 732 743 750 744 755 781 763 765 768 768 771 773 776 779 781 783 784 785 787 789 791 791 792 793 794 794 794 795 796 796 796 798 799 798 798 798 797
777 778 776 768 789 779 759 742 744 735 729 730 735 739 744 754 744 752 761 766 768 769 771 773 775 778 779 781 783 783 785 787 788 789 789 789 791 791 791 792 793 793 794 795 795 796 796 795 795
775 774 773 772 769 770 762 742 735 730 724 734 740 733 740 756 751 755 762 766 767 769 769 770 772 775 777 778 780 781 783 784 785 786 786 787 788 788 788 789 790 790 791 792 793 793 793 793 794
773 771 768 775 764 741 742 733 731 734 727 725 731 747 740 746 749 755 761 764 766 767 767 769 771 773 775 776 777 779 779 781 781 782 782 783 784 784 784 785 786 786 787 788 789 790 790 791 792
771 765 777 771 757 747 740 727 728 738 733 728 728 746 745 750 751 754 759 763 765 766 768 768 770 771 772 773 774 776 777 777 777 778 778 778 778 779 780 781 782 782 782 784 785 787 787 788 789
771 762 782 774 748 739 730 723 731 734 729 727 732 737 745 748 751 754 756 761 764 765 767 769 769 770 772 771 771 772 773 774 774 774 773 773 774 774 774 775 775 777 777 779 781 783 784 785 786
773 771 773 762 756 744 734 721 734 734 735 735 729 746 741 745 749 752 755 759 763 765 767 768 769 768 768 768 768 769 770 771 770 769 769 768 769 768 768 769 770 770 772 773 776 779 781 782 784
762 763 772 761 759 749 722 725 721 726 735 724 728 746 748 743 748 751 755 756 759 761 764 766 766 767 767 764 766 766 767 767 766 765 764 763 763 762 762 763 764 765 766 768 771 775 778 779 781
752 774 774 762 750 738 721 727 715 714 724 726 725 730 736 741 746 749 753 754 755 757 760 762 763 765 766 767 765 764 764 763 764 763 762 761 761 760 759 758 759 760 762 764 767 771 774 776 779
757 769 762 741 732 734 726 728 726 727 724 723 723 725 732 738 742 745 748 750 751 753 756 759 761 762 764 765 764 763 762 762 762 761 760 759 759 758 757 756 756 756 758 761 764 768 771 774 776
749 758 744 738 729 727 730 729 722 724 730 721 727 723 728 735 738 741 743 743 748 753 755 757 759 761 762 762 762 761 760 759 759 757 756 756 756 755 754 753 754 753 755 758 762 765 768 770 773
753 736 732 729 725 730 734 723 726 720 721 713 715 719 724 729 733 739 741 742 746 750 754 757 758 759 759 760 760 759 758 756 755 755 754 754 754 753 753 751 752 752 753 755 758 762 764 767 769
741 731 723 721 725 729 720 723 722 720 711 710 713 718 721 725 728 734 738 742 746 751 753 756 757 757 758 758 758 757 755 754 753 752 752 751 751 751 750 750 750 750 751 753 756 758 762 764 766
726 724 721 722 724 718 721 718 717 715 710 713 716 719 720 721 724 731 736 741 746 750 753 754 756 756 756 756 755 754 753 752 751 751 750 747 747 748 748 747 747 748 749 751 753 755 758 761 763
721 732 722 718 715 718 712 724 722 711 708 714 713 713 716 719 723 726 733 740 745 748 751 752 753 753 753 753 752 751 750 749 748 748 747 745 745 746 745 745 744 744 746 749 751 753 757 758 760
731 729 738 715 710 705 711 735 712 704 704 711 707 708 711 715 717 723 731 738 744 748 749 750 751 751 751 751 750 748 747 746 745 744 744 743 743 743 743 743 742 741 742 746 748 751 754 756 758
731 743 735 721 699 699 701 722 708 700 701 704 703 703 704 707 714 723 730 737 742 747 748 749 749 750 750 749 746 746 745 743 742 742 741 740 741 741 740 741 741 740 741 743 747 750 753 755 757
742 733 725 723 700 690 703 710 701 696 696 698 697 694 696 701 709 720 729 736 741 745 747 748 748 748 748 746 744 743 743 741 740 740 739 738 738 739 739 739 739 739 740 743 746 749 751 753 755
719 717 715 698 682 704 707 704 697 691 693 694 691 689 692 697 703 716 727 735 740 744 745 746 746 747 747 744 743 742 740 739 739 739 738 737 736 736 737 737 737 738 739 741 744 747 750 754 757
717 718 713 696 684 691 696 699 692 690 690 687 686 686 687 693 703 714 725 733 738 742 743 744 745 745 745 743 742 741 739 738 738 738 737 736 734 735 736 736 736 738 739 741 743 746 750 753 756
711 714 712 708 693 688 695 705 699 685 677 674 674 676 681 693 704 712 722 731 737 739 741 742 743 744 744 743 741 740 739 737 737 737 736 734 734 735 736 736 738 739 741 741 744 748 751 754 757
713 692 694 700 710 727 694 728 700 688 682 672 673 675 680 688 698 708 719 728 734 737 739 740 742 743 743 743 741 740 740 738 737 736 736 734 735 735 736 737 739 740 742 743 747 749 753 756 758
693 678 685 693 707 712 715 724 704 683 685 673 673 671 675 683 693 704 715 724 731 735 737 740 741 743 743 743 743 741 741 739 737 736 736 735 734 735 737 739 740 742 744 744 747 751 754 757 757
669 680 686 693 703 728 713 718 711 692 679 675 670 667 673 682 692 703 714 722 729 733 736 739 741 742 743 743 743 742 741 739 737 736 737 737 736 736 737 740 741 744 745 745 746 751 754 757 755
671 690 723 739 736 734 700 709 694 671 667 668 671 669 674 681 692 703 712 720 727 731 734 738 740 742 743 742 743 743 743 740 739 739 739 739 738 737 739 741 742 744 746 746 747 750 750 754 758
671 688 713 744 738 720 680 703 687 662 659 662 665 669 676 684 693 703 711 718 725 730 733 736 738 741 742 742 744 744 744 743 742 741 741 740 740 740 742 742 743 744 746 748 750 753 754 757 760
669 688 676 701 690 702 690 679 664 656 663 664 667 672 681 688 695 703 710 717 722 728 733 735 737 739 741 743 744 744 745 744 744 743 742 742 741 742 743 744 744 745 748 751 754 756 760 762 764
653 658 699 696 729 734 704 691 685 674 669 665 670 676 683 689 697 703 710 716 721 727 732 735 736 739 741 743 744 744 745 746 745 744 743 743 743 744 745 745 746 748 749 752 755 760 763 765 769
660 664 671 682 690 715 722 697 650 660 661 670 669 673 682 689 696 702 708 715 720 726 730 734 736 738 740 742 744 745 745 746 747 747 746 745 745 747 748 749 749 751 752 757 758 762 766 770 774
641 656 662 690 701 686 687 689 647 652 656 659 667 672 681 686 693 699 705 713 719 724 728 733 735 737 739 742 744 745 746 748 749 749 748 747 748 749 751 752 753 754 757 759 762 765 770 774 779
Wind_Speed
12 12 10 14 6 8 14 10 12 8 12 13 8 6 10 9 10 4 8 9 5 14 12 11 11 13 12 12 12 10 11 10 11 12 12 12 13 13 13 13 11 10 9 10 12 12 12 13 13
11 10 15 6 11 14 2 11 6 10 10 10 5 6 5 6 13 10 13 7 7 8 6 8 8 9 8 13 13 12 12 11 12 12 12 13 15 15 15 14 13 12 11 12 13 13 13 14 14
8 13 8 8 14 14 5 6 10 12 4 1 9 2 1 8 9 6 11 6 4 3 8 10 8 8 9 13 14 14 13 13 13 13 14 14 17 17 16 16 17 16 14 13 13 14 15 15 15
9 10 7 10 17 8 9 7 8 9 12 6 3 5 7 8 9 9 7 5 3 4 5 8 8 8 10 13 14 15 15 14 15 15 15 16 17 18 18 18 18 18 18 15 14 14 14 14 16
15 7 12 18 18 6 17 11 6 8 9 10 7 3 4 10 12 12 8 4 3 3 3 4 2 6 8 10 10 12 12 13 14 14 15 15 16 16 16 17 18 20 19 19 17 15 12 12 13
7 11 13 15 18 9 9 5 5 9 11 5 4 2 6 15 11 9 8 6 3 0 1 1 1 5 7 8 9 12 15 16 16 15 15 15 17 19 19 20 21 22 22 22 19 17 15 14 12
13 12 17 20 20 20 18 4 5 10 9 8 10 6 4 14 11 9 9 7 4 3 4 5 4 6 11 7 8 9 11 12 16 17 19 17 18 19 20 20 20 20 22 22 20 19 17 15 12
13 13 21 18 18 17 8 5 9 10 7 6 1 3 4 10 12 9 9 10 7 10 7 3 7 5 5 6 5 8 8 15 13 16 13 12 13 17 18 19 20 20 20 21 21 19 17 15 13
18 14 16 21 22 15 14 14 10 9 6 12 5 4 7 10 11 10 10 10 8 5 6 8 4 3 6 8 9 6 11 9 9 11 9 10 11 11 13 15 17 16 19 19 20 18 16 14 13
16 14 24 22 21 15 17 14 17 16 13 13 12 11 12 13 13 12 11 11 15 9 2 4 2 3 5 7 9 9 11 7 9 12 11 11 11 13 13 11 9 12 15 17 18 16 15 14 13
22 20 22 23 20 17 19 17 17 17 11 9 7 2 16 13 12 12 13 14 9 5 0 2 4 4 5 8 10 11 12 6 9 12 11 10 10 11 13 12 11 10 15 18 17 16 16 16 15
24 26 24 25 18 18 19 22 18 13 11 10 2 1 12 14 10 10 12 4 7 5 1 0 2 2 5 8 10 11 9 9 15 13 12 10 11 13 11 9 11 13 14 20 18 20 18 17 21
27 26 25 18 14 22 24 22 18 13 11 6 4 7 7 7 11 12 5 2 5 1 1 1 2 4 5 8 10 11 13 13 11 12 14 10 12 13 9 9 11 13 16 18 19 20 22 19 22
23 24 21 18 25 24 22 18 16 20 10 3 6 8 11 11 9 11 11 6 7 4 3 2 3 3 5 7 12 12 13 13 14 13 13 9 12 12 10 10 11 14 14 19 18 18 19 18 21
23 25 23 22 20 22 20 20 16 19 12 17 12 12 11 8 11 13 16 10 7 5 5 4 6 7 7 10 10 11 14 13 13 12 10 10 11 13 11 10 10 14 16 16 20 19 14 13 18
23 26 21 22 22 24 22 19 16 17 14 16 15 11 13 14 11 13 15 14 9 6 6 4 4 4 6 8 10 15 12 11 11 13 12 13 12 10 12 9 9 9 15 18 20 19 15 14 18
20 18 25 23 22 23 22 18 17 17 14 14 11 11 10 9 9 12 13 14 10 9 6 5 3 6 5 9 14 15 9 7 10 12 11 11 11 9 11 10 7 6 12 20 21 19 17 18 19
20 23 21 22 22 21 14 18 16 17 19 11 17 14 11 9 13 16 14 13 13 10 7 5 4 4 5 12 15 6 6 4 7 7 10 10 9 9 10 11 9 8 11 17 18 18 18 21 19
24 23 23 22 16 9 15 21 18 13 14 19 16 9 7 10 12 19 17 15 12 10 8 8 5 4 5 10 8 7 6 6 3 4 8 9 11 9 9 10 10 11 11 15 16 20 18 16 18
27 25 23 20 18 14 14 15 13 15 17 19 17 13 8 12 14 15 18 15 14 11 10 8 6 4 4 8 6 3 4 4 2 3 3 5 3 8 8 9 12 12 9 10 14 18 12 12 18
25 24 20 22 17 16 15 14 14 21 18 13 12 5 3 14 13 15 14 16 14 13 10 9 5 3 3 6 9 7 9 7 4 4 4 3 3 6 8 9 10 10 10 10 10 11 9 11 12
24 25 24 17 14 12 14 13 13 15 16 11 5 8 10 15 14 15 14 16 15 14 12 9 6 4 4 5 9 9 9 10 4 3 7 3 3 5 6 10 11 12 11 10 12 14 9 18 13
23 23 18 13 15 14 15 12 14 14 17 7 1 6 13 15 15 16 15 18 16 14 13 9 7 4 1 1 6 9 9 10 8 3 6 7 5 4 9 11 11 9 5 11 11 13 20 21 21
24 20 11 12 12 12 15 15 14 15 4 4 1 5 13 14 15 15 17 19 16 13 14 10 7 4 3 0 4 6 8 11 8 4 7 10 6 5 9 11 11 7 7 9 9 12 18 20 19
23 12 11 10 11 11 17 15 15 9 10 1 2 4 12 13 14 14 14 14 15 14 14 10 8 7 4 1 3 6 10 11 11 10 10 9 11 10 12 10 9 7 8 10 10 13 16 21 25
21 17 11 11 11 16 20 16 3 5 6 2 1 4 12 12 13 14 14 14 16 14 14 12 9 8 6 3 2 4 7 9 9 9 10 9 9 11 12 9 9 8 10 14 15 17 19 23 20
19 21 17 17 15 12 8 10 13 12 7 9 10 9 12 11 13 14 14 15 16 15 14 10 9 9 5 3 2 2 6 8 8 10 12 12 11 13 12 10 12 12 14 16 20 20 22 22 22
22 19 16 12 15 13 11 14 4 11 6 10 8 7 12 11 13 13 13 14 14 16 14 10 8 7 5 4 4 4 8 8 8 6 7 9 12 13 13 14 16 18 18 21 22 21 22 23 22
19 18 16 14 14 11 9 9 3 11 9 9 8 11 12 13 14 13 13 15 14 16 16 12 10 10 7 5 4 3 8 6 9 8 11 9 13 12 12 16 17 18 17 22 20 20 22 22 22
23 23 17 10 15 10 10 3 11 8 8 7 11 12 14 15 14 14 13 16 15 15 16 14 12 11 9 8 8 4 8 8 10 11 13 10 12 14 13 15 16 19 20 20 19 20 19 22 21
Wind_Direction
177 175 207 230 255 232 261 1 233 326 57 50 12 347 337 312 26 56 118 117 98 120 152 165 190 207 216 227 236 244 252 259 253 253 246 248 257 270 281 288 291 283 276 262 258 259 267 267 270
178 203 236 269 247 279 287 280 326 4 26 23 314 266 284 38 55 114 132 113 99 122 137 183 187 205 233 242 245 251 256 260 263 264 264 254 253 254 264 274 276 277 270 264 257 255 258 261 267
206 227 272 239 248 267 343 281 352 356 354 134 300 162 0 87 71 77 106 119 135 160 209 200 205 224 248 245 250 257 259 258 260 263 264 264 266 265 266 268 268 268 263 258 252 250 251 257 260
211 219 246 253 263 297 299 356 348 357 320 159 211 337 115 98 121 102 125 167 201 242 125 170 198 229 251 251 252 257 259 264 267 267 268 268 267 269 270 265 264 264 256 251 242 242 250 254 257
246 271 259 261 267 345 273 319 14 318 308 329 104 302 56 120 121 132 142 183 220 261 62 144 256 258 258 260 255 259 264 264 263 267 265 266 268 269 268 265 260 259 255 244 237 239 244 255 258
221 229 263 273 308 187 258 18 360 308 299 319 248 243 85 140 140 147 147 178 207 95 196 191 249 270 276 283 272 261 263 267 270 270 272 273 272 273 272 266 260 257 251 239 231 230 239 252 263
251 264 265 278 300 299 317 43 286 296 328 333 8 5 137 157 144 151 155 161 177 184 198 209 209 275 276 261 252 255 267 284 288 288 287 279 275 275 272 266 260 254 244 234 226 226 234 245 261
237 261 274 274 271 285 326 234 240 286 256 353 72 308 10 116 137 157 176 179 184 197 212 172 261 261 282 257 249 268 301 303 299 313 300 292 282 272 270 258 253 249 240 228 223 221 232 237 245
240 253 258 269 282 304 301 311 329 302 202 267 217 193 111 135 161 181 198 215 217 190 231 239 253 296 291 283 271 287 308 292 301 303 305 298 301 284 278 272 254 242 229 221 221 219 225 226 232
234 245 256 267 284 309 312 308 296 302 254 232 199 185 154 164 182 212 203 214 221 209 208 313 277 256 295 283 279 285 293 272 283 287 295 301 287 273 276 272 262 236 219 217 211 211 220 226 225
236 246 254 269 292 303 298 296 285 277 290 276 6 347 159 184 207 212 232 228 76 63 54 3 320 270 273 284 291 284 274 274 298 297 282 288 286 274 273 259 241 237 210 204 204 207 215 221 217
250 249 253 256 275 299 276 276 272 283 286 278 284 294 166 190 204 206 234 192 154 163 55 281 299 276 280 279 289 293 288 299 300 280 281 271 272 269 270 261 252 229 214 206 202 208 215 214 215
252 256 257 274 284 264 261 260 280 274 280 292 278 229 225 204 192 208 193 165 90 149 110 298 270 273 271 273 283 286 291 285 276 273 265 245 263 274 272 270 256 233 220 212 211 206 215 217 217
253 258 264 262 253 258 266 263 261 264 256 245 268 258 240 223 195 160 182 160 176 187 218 220 253 259 265 267 272 276 283 276 273 280 272 240 272 268 262 265 260 247 229 214 209 208 212 222 209
261 263 266 255 254 257 271 260 245 275 230 267 245 234 235 266 217 201 158 182 197 198 210 224 242 236 254 269 279 285 286 274 274 271 269 253 261 263 258 261 268 241 234 211 212 217 213 211 196
254 260 257 259 252 250 236 252 260 247 240 262 243 245 240 223 219 171 157 171 186 216 203 221 257 266 264 289 290 296 281 272 271 271 271 254 254 259 257 252 261 255 214 201 208 215 209 198 197
248 252 253 258 247 251 233 236 238 261 280 248 236 244 249 217 157 149 169 165 181 204 215 221 235 258 287 293 282 297 284 275 270 271 273 269 257 264 250 250 234 227 192 193 199 201 196 192 196
235 240 238 252 259 260 218 241 242 236 249 258 268 245 239 216 161 160 171 175 184 201 200 213 240 257 290 298 304 286 286 286 274 256 274 271 263 258 244 245 217 207 185 189 192 207 193 189 189
244 251 246 253 258 220 236 238 241 255 276 285 291 282 241 183 153 157 168 182 179 198 198 213 214 254 286 302 344 341 339 338 264 301 275 276 263 239 240 238 207 193 194 192 188 185 187 185 184
243 252 261 273 283 286 284 264 279 286 271 264 263 264 254 151 145 155 164 179 182 197 208 199 219 230 285 310 334 328 320 296 288 324 336 299 277 214 224 208 181 178 189 186 183 172 174 176 165
234 243 254 261 273 270 277 270 264 263 269 265 255 219 228 144 162 160 165 180 184 201 191 201 186 222 284 306 323 344 348 330 306 334 349 18 197 183 193 184 174 171 170 175 168 152 162 144 160
232 232 239 254 274 270 281 289 279 294 272 257 237 203 169 155 168 160 167 177 186 196 190 173 180 224 199 350 4 355 356 348 321 21 14 45 133 178 188 180 170 173 171 161 145 138 141 133 151
233 239 242 236 247 259 268 269 276 289 281 233 169 222 177 158 166 165 169 175 185 191 173 174 183 194 176 41 16 10 11 0 357 19 39 87 140 130 179 171 176 180 193 169 151 152 157 150 167
233 237 248 257 260 249 250 259 270 266 320 101 297 228 138 156 158 158 166 169 180 175 168 173 197 185 219 247 17 5 349 356 16 64 71 66 67 118 161 171 185 181 175 177 163 147 147 146 128
224 213 224 225 237 252 250 246 245 280 297 330 313 128 147 146 150 158 166 164 176 175 163 175 188 187 226 122 29 23 43 45 62 78 64 65 57 96 140 159 177 178 177 172 160 145 144 139 125
198 207 219 226 223 245 236 242 261 98 91 74 79 74 123 146 149 161 168 166 170 170 165 206 177 161 215 112 78 51 60 63 84 86 68 62 66 91 128 130 148 174 174 163 158 145 128 122 116
194 212 215 250 251 284 281 221 217 171 166 198 196 141 131 147 151 162 163 170 169 164 169 199 187 172 191 130 130 74 85 86 96 97 84 69 72 103 104 121 130 140 148 146 144 136 123 112 117
219 192 208 232 244 266 279 277 225 138 199 150 127 143 134 148 157 164 164 170 167 161 168 188 178 170 173 161 180 118 109 103 97 104 93 73 91 118 104 112 119 132 139 138 128 128 125 121 125
205 222 199 225 225 226 243 257 276 149 128 121 155 138 146 156 166 165 166 164 173 163 167 186 192 171 160 172 119 158 116 107 94 99 108 80 100 115 105 111 117 126 129 139 129 133 139 129 127
206 216 192 214 219 253 253 242 98 110 137 135 114 138 154 161 170 168 166 166 178 170 168 177 200 166 177 173 143 153 121 107 101 98 109 86 102 110 107 118 116 132 135 140 141 138 149 139 139